Location: Spruce Knob
(38.6995°N, 79.5330°W)
Time: 15:46:39
(UTC-04:00)

Gurwin Techsat 1B - Visible Passes

Search period start: 22 April 2024 00:00
Search period end: 02 May 2024 00:00
Orbit: 811 x 812 km, 98.9° (Epoch: 21 April)

Date Brightness Start Highest point End Pass type
(mag) Time Alt. Az. Time Alt. Az. Time Alt. Az.
22 Apr 10.4 04:00:04 10° NE 04:04:32 27° E 04:08:24 13° SSE visible
22 Apr 9.3 05:39:38 10° N 05:44:26 35° WNW 05:49:12 10° SW visible
23 Apr 11.0 03:37:53 10° NE 03:41:09 16° E 03:44:22 10° SE visible
23 Apr 8.7 05:16:09 10° N 05:21:22 58° WNW 05:26:13 12° SSW visible
24 Apr 8.6 04:52:52 10° NNE 04:58:13 86° ESE 05:02:49 14° SSW visible
25 Apr 9.3 04:29:48 10° NNE 04:34:59 52° E 04:39:26 14° S visible
26 Apr 10.1 04:06:59 10° NE 04:11:41 31° E 04:16:01 11° SSE visible
26 Apr 9.5 05:46:51 10° N 05:51:28 31° WNW 05:56:04 10° SW visible
27 Apr 10.9 03:44:36 10° NE 03:48:18 19° E 03:51:58 10° SE visible
27 Apr 8.9 05:23:19 10° N 05:28:26 50° WNW 05:33:31 10° SW visible
28 Apr 11.3 03:23:37 10° ENE 03:24:50 11° E 03:26:02 10° ESE visible
28 Apr 8.6 04:59:58 10° NNE 05:05:18 83° WNW 05:10:25 11° SSW visible
29 Apr 9.1 04:36:50 10° NNE 04:42:06 60° ESE 04:47:01 12° S visible
30 Apr 9.9 04:13:56 10° NNE 04:18:48 36° E 04:23:36 10° SSE visible
01 May 10.7 03:51:23 10° NE 03:55:27 22° E 03:59:28 10° SE visible
01 May 9.1 05:30:28 10° N 05:35:28 44° WNW 05:40:28 10° SW visible
